Regional Weather Roundup
Issued by NWS

Home | Current Version | Previous Version | Text Only | Print | Product List | Glossary Off
Versions: 1 2 3 4 5 6 7 8 9 10 11 12 13 14 15 16 17 18 19 20 21 22 23 24 25 26 27 28 29 30 31 32 33 34 35 36 37 38 39 40 41 42 43 44 45 46 47 48 49 50

000
ASUS43 KOAX 300502
RWRNE

WEATHER ROUNDUP FOR NEBRASKA
NATIONAL WEATHER SERVICE OMAHA NE
1200 AM CDT TUE AUG 30 2016

NOTES: SATELLITE DATA IS BEING USED TO AUGMENT CLOUD COVER ABOVE
       12000 FEET.
       "FAIR" INDICATES FEW OR NO CLOUDS BELOW 12,000 FEET WITH NO
       SIGNIFICANT WEATHER AND/OR OBSTRUCTIONS TO VISIBILITY.

  * THESE STATIONS DO NOT REPORT WEATHER SUCH AS RAIN...SNOW OR FOG.

NEZ001>004-019>022-054>056-300600-
NEBRASKA PANHANDLE

CITY           SKY/WX    TMP DP  RH WIND       PRES   REMARKS
SCOTTSBLUFF    CLOUDY    64  59  83 CALM      30.27S
ALLIANCE       CLOUDY    63  60  90 E5        30.27S
CHADRON        CLEAR     64  57  78 CALM      30.25R
KIMBALL        CLOUDY    62  57  82 CALM      30.33S
SIDNEY         PTCLDY    62  59  90 E5        30.30S
$$

NEZ057>060-069>072-079>082-300600-
SOUTHWEST NEBRASKA

CITY           SKY/WX    TMP DP  RH WIND       PRES   REMARKS
NORTH PLATTE   CLOUDY    71  65  81 S7        30.24S
IMPERIAL       CLOUDY    68  60  75 SE5       30.25S
LEXINGTON      CLOUDY    71  67  87 CALM      30.24R
MCCOOK         CLOUDY    70  66  87 CALM      30.24S
$$

NEZ005>010-023>029-035>040-094-300600-
NORTH CENTRAL NEBRASKA

CITY           SKY/WX    TMP DP  RH WIND       PRES   REMARKS
VALENTINE      PTCLDY    65  59  81 SW3       30.21R
AINSWORTH      CLOUDY    65  64  94 S5        30.22R
BROKEN BOW     CLOUDY    67  66  97 CALM      30.23R
O`NEILL        PTCLDY    71  66  86 SE5       30.21S
ORD            CLOUDY    69  64  84 E3        30.20S
THEDFORD       CLOUDY    68  64  85 CALM      30.25S
$$

NEZ041-046>049-061>064-073>077-083>087-300600-
SOUTH CENTRAL NEBRASKA

CITY           SKY/WX    TMP DP  RH WIND       PRES   REMARKS
GRAND ISLAND   CLOUDY    69  67  93 SE6       30.22S
AURORA         CLOUDY    69  69 100 SE5       30.22S
HASTINGS       LGT RAIN  69  68  96 SE3       30.23R
HEBRON         CLOUDY    69  67  93 CALM      30.22R
HOLDREGE       LGT RAIN  69  66  93 CALM      30.23R
KEARNEY *      CLOUDY    70  64  83 CALM      30.22R
YORK           CLOUDY    68  66  94 E7        30.22S
$$

NEZ011>018-030>034-042>045-300600-
NORTHEAST NEBRASKA

CITY           SKY/WX    TMP DP  RH WIND       PRES   REMARKS
NORFOLK        CLOUDY    69  65  86 SE5       30.23S
ALBION         CLOUDY    69  65  87 E7        30.23R
BLAIR          LGT RAIN  69  68  96 S3        30.20F
FREMONT        CLOUDY    69  68  94 CALM      30.19F
TEKAMAH        CLOUDY    69  67  93 S3        30.20R
WAYNE          CLOUDY    69  67  93 SW7       30.21F
$$

NEZ050>053-065>068-078-088>093-300600-
SOUTHEAST NEBRASKA

CITY           SKY/WX    TMP DP  RH WIND       PRES   REMARKS
LINCOLN        CLOUDY    70  69  97 SE7       30.24R
OMAHA EPPLEY   LGT RAIN  71  68  90 SW7       30.20F
BEATRICE       LGT RAIN  69  65  89 E9        30.22R
FALLS CITY     CLOUDY    72  68  87 NW8       30.20R
NEBRASKA CITY  LGT RAIN  69  69 100 CALM      30.22F
PLATTSMOUTH    RAIN      69  69  99 CALM      30.21R
$$

NEZ044-045-051>053-067-300600-
OMAHA AREA

CITY           SKY/WX    TMP DP  RH WIND       PRES   REMARKS
OMAHA EPPLEY   LGT RAIN  71  68  90 SW7       30.20F
BLAIR          LGT RAIN  69  68  96 S3        30.20F
FREMONT        CLOUDY    69  68  94 CALM      30.19F
PLATTSMOUTH    RAIN      69  69  99 CALM      30.21R
WAHOO          LGT RAIN  69  67  93 CALM      30.20F
$$




USA.gov is the U.S. government's official web portal to all federal, state and local government web resources and services.